Temp
3 3 2 2 2 2 1 1 1 1 2 2 2 2 2 3 2 2 2 2 1 1 1 1 2 1 1 1 1 1 0 -0
4 3 3 3 3 3 3 3 3 2 2 3 3 3 3 2 2 2 2 1 1 1 1 2 1 1 1 1 1 0 -0 -1
5 4 4 4 4 4 4 4 4 3 3 3 3 3 2 2 2 2 2 2 1 1 1 2 1 1 1 1 0 -0 -1 -1
5 5 5 5 5 5 4 4 4 3 3 3 3 3 3 3 2 2 2 1 1 1 1 1 1 1 1 0 -0 -1 -1 -1
6 6 6 6 5 5 4 4 4 4 3 3 3 3 2 2 2 2 2 1 1 2 2 1 1 1 0 -0 -1 -1 -2 -2
6 6 6 6 5 5 5 4 4 4 4 3 3 3 2 2 2 2 2 1 1 1 1 1 1 0 -0 -1 -1 -2 -2 -2
6 6 6 6 5 5 5 5 4 4 3 3 2 2 2 2 2 2 1 1 1 1 1 0 0 -0 -1 -1 -1 -3 -3 -3
6 6 6 6 6 5 5 5 4 4 1 3 2 1 1 2 2 2 2 1 1 1 0 0 -0 -1 -1 -1 -2 -1 -3 -3
7 7 6 6 6 6 5 5 4 3 3 2 1 1 1 2 2 2 2 2 1 1 0 -0 -1 -1 -1 -2 -3 -3 -3 -3
8 7 7 6 6 6 5 5 4 4 3 3 3 2 2 2 2 2 2 1 1 0 -1 -1 -1 -2 -2 -2 -2 -3 -3 -3
8 7 7 7 7 6 6 5 4 4 3 3 2 2 2 2 2 2 2 1 0 -0 -1 -1 -1 -2 -2 -2 -2 -3 -4 -4
7 7 7 7 6 6 6 5 5 4 4 3 3 3 2 2 2 1 1 0 -0 -1 -1 -1 -1 -2 -2 -2 -4 -3 -4 -5
7 7 6 6 6 5 5 5 5 4 4 4 3 3 2 2 1 1 1 -0 -0 -1 -1 -2 -2 -3 -2 -3 -4 -3 -4 -6
6 7 6 6 6 5 5 5 4 4 4 3 3 2 2 1 1 0 0 -0 -1 -2 -2 -2 -3 -3 -3 -3 -4 -4 -6 -7
6 6 6 6 5 5 4 4 4 3 3 3 2 2 2 1 1 0 0 -0 -1 -2 -2 -2 -2 -3 -4 -4 -5 -6 -7 -7
6 6 5 5 5 5 4 4 4 3 3 3 2 2 1 1 0 -0 -1 -1 -2 -2 -2 -3 -3 -4 -5 -5 -6 -7 -7 -8
6 6 5 5 5 5 4 4 4 3 3 2 2 2 1 1 1 0 -0 -2 -3 -2 -3 -4 -5 -6 -6 -7 -7 -7 -8 -9
6 6 5 5 5 5 4 4 3 3 3 2 2 1 1 0 -0 -0 -1 -2 -3 -3 -4 -5 -5 -6 -7 -7 -8 -8 -9 -9
5 5 4 4 4 4 3 3 3 2 2 1 1 0 -0 -1 -1 -2 -2 -3 -4 -4 -5 -6 -6 -7 -7 -8 -8 -9 -9 -10
Height
3124 3127 3128 3129 3131 3133 3135 3138 3141 3144 3147 3149 3152 3155 3157 3160 3162 3164 3165 3166 3167 3168 3168 3167 3167 3166 3165 3165 3164 3162 3161 3160
3127 3129 3130 3132 3133 3134 3137 3140 3143 3145 3148 3151 3153 3155 3157 3158 3160 3162 3163 3163 3164 3165 3164 3164 3163 3163 3162 3160 3160 3159 3157 3155
3127 3129 3130 3132 3135 3137 3139 3141 3144 3146 3148 3151 3154 3155 3157 3158 3158 3158 3159 3160 3160 3161 3160 3160 3159 3158 3158 3157 3155 3154 3152 3149
3127 3129 3131 3133 3135 3137 3140 3142 3144 3146 3148 3150 3152 3152 3153 3155 3156 3156 3156 3157 3157 3157 3156 3156 3155 3153 3153 3152 3151 3149 3146 3143
3127 3129 3130 3132 3134 3136 3138 3140 3141 3143 3145 3146 3148 3150 3151 3152 3152 3152 3152 3152 3152 3152 3151 3150 3149 3148 3148 3146 3144 3143 3140 3136
3126 3128 3130 3131 3134 3134 3137 3138 3139 3141 3142 3143 3145 3146 3147 3147 3147 3147 3147 3147 3147 3146 3145 3144 3143 3143 3142 3140 3138 3136 3132 3130
3124 3126 3127 3129 3131 3131 3133 3134 3136 3137 3138 3140 3141 3142 3142 3141 3142 3141 3141 3140 3139 3140 3139 3138 3136 3136 3135 3134 3131 3128 3124 3121
3119 3121 3123 3125 3127 3128 3129 3130 3131 3131 3131 3131 3133 3134 3135 3135 3134 3135 3135 3133 3132 3133 3131 3130 3130 3130 3128 3127 3124 3119 3116 3113
3113 3115 3118 3120 3122 3123 3125 3126 3127 3127 3126 3125 3124 3128 3129 3129 3129 3128 3127 3125 3125 3125 3124 3124 3124 3123 3121 3118 3115 3111 3108 3104
3108 3110 3112 3114 3116 3117 3120 3121 3121 3123 3124 3121 3124 3123 3124 3123 3122 3121 3120 3119 3119 3119 3118 3117 3116 3115 3112 3109 3106 3101 3099 3096
3103 3105 3106 3108 3110 3111 3113 3115 3116 3117 3117 3117 3119 3119 3119 3118 3117 3116 3115 3114 3112 3111 3110 3109 3108 3106 3104 3101 3097 3093 3089 3084
3101 3102 3102 3103 3105 3106 3108 3108 3109 3110 3111 3111 3112 3113 3112 3112 3112 3110 3109 3108 3106 3103 3102 3101 3101 3098 3094 3092 3087 3083 3079 3074
3098 3098 3099 3100 3101 3103 3104 3105 3105 3106 3106 3107 3107 3107 3107 3107 3106 3105 3103 3100 3099 3097 3096 3095 3092 3088 3086 3083 3078 3074 3069 3066
3094 3095 3095 3096 3097 3098 3099 3100 3100 3101 3102 3102 3102 3102 3100 3099 3099 3097 3095 3093 3092 3089 3088 3086 3081 3078 3076 3073 3068 3063 3062 3060
3091 3091 3092 3093 3093 3094 3095 3095 3096 3096 3097 3096 3096 3095 3093 3092 3091 3089 3087 3085 3084 3082 3079 3078 3076 3069 3067 3062 3060 3058 3055 3051
3086 3087 3088 3088 3089 3090 3090 3090 3091 3091 3092 3091 3090 3088 3087 3085 3083 3082 3080 3078 3077 3074 3072 3068 3064 3063 3058 3056 3053 3048 3045 3041
3081 3082 3083 3084 3084 3084 3086 3087 3086 3086 3086 3084 3082 3081 3079 3077 3075 3074 3071 3070 3067 3064 3061 3057 3055 3051 3049 3046 3043 3038 3035 3030
3075 3076 3078 3078 3079 3080 3080 3079 3079 3079 3078 3076 3074 3072 3070 3068 3066 3063 3061 3060 3057 3055 3050 3049 3045 3043 3040 3037 3033 3029 3025 3022
3069 3070 3071 3072 3073 3074 3074 3074 3073 3071 3069 3067 3066 3064 3062 3060 3057 3055 3053 3050 3048 3045 3043 3039 3036 3035 3031 3028 3024 3020 3016 3013
Wind_Speed
14 13 15 17 18 17 16 17 19 18 19 21 21 22 21 19 19 18 18 17 16 14 14 13 14 14 15 15 16 18 22 24
15 15 16 17 17 18 17 17 17 17 16 16 16 15 15 15 15 17 18 17 15 15 14 14 14 16 16 17 19 22 24 26
18 19 19 18 17 17 16 16 15 15 16 16 16 15 15 17 17 17 18 18 17 17 17 17 16 18 19 20 23 25 27 29
18 15 16 16 15 15 16 17 18 18 18 18 18 17 15 13 15 17 17 18 19 21 22 21 20 20 22 24 26 29 31 34
17 17 16 15 15 17 18 19 18 18 19 18 18 17 15 15 15 18 20 20 21 25 25 24 23 24 25 25 28 31 34 38
16 16 18 17 18 17 17 18 20 20 20 20 19 19 19 19 19 23 24 25 25 25 24 26 25 25 27 28 30 34 36 34
21 21 23 20 20 20 21 21 21 22 24 22 21 22 24 21 20 20 23 26 27 26 26 27 26 25 28 31 33 33 34 35
26 25 24 24 23 21 20 21 20 23 27 16 21 27 25 25 24 24 25 25 27 27 28 26 25 29 27 32 35 34 41 40
29 31 29 28 26 24 23 22 21 22 24 26 26 20 26 28 30 29 29 27 25 26 25 24 26 24 31 34 35 36 36 39
25 26 29 31 32 30 27 25 26 23 25 32 24 20 23 27 28 30 30 29 28 26 25 26 26 33 34 36 40 36 38 39
20 23 26 28 30 30 28 27 27 26 25 28 20 22 25 26 26 26 28 29 29 27 29 32 30 31 35 34 38 45 36 44
11 15 19 24 26 28 27 29 30 30 29 26 21 20 23 22 23 25 26 31 35 32 32 28 33 32 35 39 40 46 46 42
6 8 11 15 20 21 21 24 25 26 27 24 18 19 21 23 26 29 31 29 28 24 27 30 33 36 37 36 44 50 44 35
10 9 11 11 11 11 12 14 14 15 18 18 21 23 24 26 28 29 29 29 33 25 30 34 39 38 39 41 50 53 36 38
15 15 15 14 13 13 13 16 17 18 21 23 25 26 29 31 31 31 31 32 30 34 34 33 41 50 43 52 47 37 41 39
15 20 20 20 20 20 22 23 23 23 24 25 27 29 31 32 33 33 32 32 34 35 35 36 38 38 42 42 38 39 38 39
19 21 23 22 22 23 21 23 25 26 26 27 29 31 30 31 33 34 34 31 32 32 34 31 27 30 32 33 36 38 37 36
19 20 24 26 24 24 24 23 22 24 26 28 30 31 31 31 31 32 30 27 33 34 34 36 35 31 32 35 35 35 35 33
22 23 21 20 20 20 20 22 25 27 28 27 26 27 28 30 32 33 33 34 35 34 33 31 31 33 31 30 32 33 34 35
Wind_Direction
145 153 156 160 158 155 157 158 162 167 173 176 182 187 192 197 206 212 217 225 233 254 264 273 284 290 289 289 297 299 298 299
174 169 162 162 160 157 160 165 168 171 175 176 182 185 192 199 206 214 221 226 238 255 266 275 281 281 283 290 289 286 289 296
174 173 171 170 166 165 169 167 168 172 177 184 190 198 203 211 217 224 230 236 248 259 265 268 269 274 278 281 283 287 290 295
179 174 173 174 171 174 178 182 185 190 195 198 201 209 215 228 237 242 245 252 256 259 260 263 265 270 275 281 286 291 295 297
182 185 184 187 186 193 195 198 200 204 208 216 218 225 233 240 245 250 253 258 261 260 261 265 271 272 275 281 289 295 298 299
190 188 180 182 201 205 210 214 217 218 220 224 228 234 240 249 256 261 262 262 265 269 271 274 275 276 279 284 290 297 296 298
199 199 198 201 207 211 216 221 225 230 231 230 233 239 242 248 257 270 269 265 264 271 279 280 273 277 286 292 295 295 298 298
216 217 221 223 223 226 232 238 241 244 236 252 240 251 246 258 268 272 281 274 272 277 278 275 271 284 286 289 290 287 297 302
223 224 228 234 238 239 242 249 256 263 258 254 271 243 246 260 268 276 283 281 274 271 271 270 276 279 285 286 289 285 290 303
225 226 233 237 240 245 248 253 260 265 267 265 283 242 261 271 274 278 280 276 269 265 267 264 265 281 279 283 287 279 286 305
222 223 230 234 235 235 242 251 255 250 251 265 269 253 262 271 273 278 273 265 261 262 265 267 278 276 282 293 286 286 291 309
222 226 229 227 226 226 234 238 240 239 241 254 260 261 265 270 274 275 271 266 268 268 269 285 284 284 305 292 293 297 294 306
251 237 229 222 224 229 235 237 241 245 241 243 249 259 264 269 274 276 276 278 274 273 285 282 282 282 293 294 291 286 285 297
245 219 204 197 203 210 219 228 236 241 244 253 260 267 274 278 278 277 280 268 272 285 275 289 277 269 289 301 289 285 296 302
248 223 213 217 222 227 239 253 261 259 262 261 266 272 277 279 279 278 279 272 268 283 278 286 280 274 284 299 290 297 298 300
249 228 225 225 227 232 236 241 251 264 270 274 278 278 278 278 278 276 274 269 277 283 283 292 290 303 308 292 294 295 297 299
246 236 232 234 237 241 245 252 257 267 266 268 269 272 276 279 279 279 278 276 281 283 284 295 293 293 300 297 295 295 297 301
252 244 239 242 246 250 253 254 258 264 269 272 276 279 280 279 279 279 279 274 277 281 288 289 295 299 298 295 296 295 297 296
256 242 237 242 248 250 257 266 273 276 278 279 280 280 281 283 284 284 283 284 284 283 289 297 299 296 296 297 296 297 296 297